Location: ???? ??
(36.0534°N, 43.5630°E)
Time: 21:35:36
(UTC+00:00)

Cosmos 2360 Rocket - Pass Details

Date: 18 September 2019
Orbit: 833 x 846 km, 71.0° (Epoch: 14 October)

Event Time Altitude Azimuth Distance (km) Brightness Sun altitude
Rises 15:24:19 0° 340° (NNW) 3,399 5.7 -3.8°
Reaches altitude 10° 15:26:47 10° 342° (NNW) 2,463 5.0 -4.3°
Maximum altitude 15:32:26 74° 68° (ENE) 876 2.2 -5.5°
Drops below altitude 10° 15:38:04 10° 153° (SSE) 2,456 4.3 -6.6°
Sets 15:40:31 0° 155° (SSE) 3,388 5.0 -7.1°
